This is the latest recevied weather packets stored in our database for station/object AD8AK. If no packets are shown the sender has not sent any weather packets the latest 1 day(s).
| Time | Temp. | Humidity | Pressure | Rain* | Wind** | Luminosity | Snow |
|---|---|---|---|---|---|---|---|
| 1778022786 | 9.44° C | 94% | 1008.8 hPa | 0 mm | 0 m/s | - | - |
| 1778022484 | 9.44° C | 94% | 1008.7 hPa | 1.78 mm | 0 m/s | - | - |
| 1778022180 | 9.44° C | 94% | 1008.5 hPa | 1.78 mm | 0 m/s | - | - |
| 1778021877 | 9.44° C | 94% | 1008.5 hPa | 0 mm | 0.89 m/s, 315° | - | - |
| 1778021574 | 9.44° C | 94% | 1008.7 hPa | 0 mm | 0 m/s | - | - |
| 1778021269 | 9.44° C | 94% | 1008.4 hPa | 1.27 mm | 0.45 m/s, 77° | - | - |
| 1778020967 | 9.44° C | 94% | 1008.3 hPa | 1.27 mm | 0 m/s | - | - |
| 1778020664 | 9.44° C | 94% | 1008.3 hPa | 1.78 mm | 0 m/s | - | - |
| 1778020361 | 9.44° C | 94% | 1008.2 hPa | 1.78 mm | 0 m/s | - | - |
| 1778020057 | 9.44° C | 94% | 1008.2 hPa | 0 mm | 0 m/s | - | - |
| 1778019753 | 9.44° C | 94% | 1008.2 hPa | 1.27 mm | 0 m/s | - | - |
| 1778019450 | 9.44° C | 94% | 1008 hPa | 1.27 mm | 0 m/s | - | - |
| 1778019147 | 9.44° C | 94% | 1008.1 hPa | 0 mm | 0 m/s | - | - |
| 1778018844 | 9.44° C | 94% | 1008.1 hPa | 0 mm | 0 m/s | - | - |
| 1778018542 | 9.44° C | 94% | 1008.2 hPa | 0 mm | 0 m/s | - | - |
| 1778018239 | 9.44° C | 94% | 1008 hPa | 0 mm | 0 m/s | - | - |
| 1778017937 | 10° C | 94% | 1008.1 hPa | 1.78 mm | 0 m/s | - | - |
| 1778017634 | 10° C | 94% | 1008.1 hPa | 1.78 mm | 0 m/s | - | - |
| 1778017332 | 10° C | 94% | 1008 hPa | 1.78 mm | 0 m/s | - | - |
| 1778017029 | 10° C | 94% | 1008.1 hPa | 1.78 mm | 0 m/s | - | - |
| 1778016726 | 10° C | 94% | 1008.1 hPa | 1.27 mm | 0.89 m/s, 326° | - | - |
| 1778016422 | 10° C | 94% | 1008.2 hPa | 3.05 mm | 0 m/s | - | - |
| 1778016119 | 10° C | 94% | 1008 hPa | 1.78 mm | 0 m/s | - | - |
| 1778015816 | 10° C | 94% | 1008.2 hPa | 1.27 mm | 0 m/s | - | - |
| 1778015514 | 10° C | 94% | 1008 hPa | 3.05 mm | 0.45 m/s, 342° | - | - |
* Rain latest hour (hover to see other rain measurements)
** Current wind speed in m/s (hover to see current wind gust speed)